[[{"header":{"parameterUnit":"m.s-1","parameterCategory":1,"la1":30.2991,"la2":30.254,"lo1":-89.0895,"lo2":-89.0444,"dy":0.0017,"dx":0.0017,"nx":28,"ny":28,"refTime":"2024-02-22T09:00:00:Z","depth":0,"parameterNumber":2,"parameterNumberName":"U-component_of_WINDS"},"data":[0,0,0,0,0,0,0,0,0,0,0,0,0,0,0,0,0,0,0,0,0,0,0,0,0,0,0,0,0,0,0,0,0,0,0,0,0,0,0,0,0,0,0,0,0,0,0,0,0,0,0,0,0,0,0,0,0,0,2.0931,2.0931,0,2.0944,2.0944,2.0944,2.0915,2.0914,2.0913,2.0913,2.0927,2.0928,2.093,0,0,0,0,0,0,0,0,0,0,0,0,0,2.0884,2.0885,2.0931,2.0931,2.0931,2.0944,2.0944,2.0944,2.0916,2.0914,2.0913,2.0912,2.0927,2.0928,2.093,0,0,0,0,0,0,0,0,0,0,0,0,0,2.0902,2.0886,2.0931,2.0918,2.0917,2.0944,2.0944,2.0944,2.0916,2.0914,2.0913,2.0912,2.0926,2.0928,2.093,2.097,0,0,2.0936,2.0937,0,0,0,0,0,0,0,0,2.0901,2.0903,2.092,2.0919,2.0918,2.0927,2.0933,2.0953,2.0916,2.0916,2.0913,2.0911,2.0928,2.093,2.0935,2.097,2.0971,2.0936,2.0937,2.0938,2.0938,0,0,0,0,0,0,0,2.09,2.0903,2.0936,2.092,2.0919,2.0913,2.0914,2.0937,2.093,2.0916,2.0914,2.0916,2.0927,2.0934,2.0936,2.0971,2.0936,2.0938,2.0939,2.0939,2.1043,2.1044,0,0,0,0,0,0,2.09,2.0902,2.0936,2.0937,2.0906,2.0915,2.0916,2.0925,2.093,2.0929,2.0917,2.0915,2.0931,2.0933,2.0936,2.0985,2.0938,2.094,2.0941,2.1041,2.1043,2.1045,0,0,0,0,0,0,2.0899,2.0903,2.0935,2.0919,2.0922,2.0917,2.0928,2.0926,2.0933,2.093,2.0929,2.0925,2.093,2.0933,2.0962,2.0985,2.094,2.0942,2.1039,2.1042,2.1044,2.1081,0,0,0,0,0,0,2.0898,2.0903,2.0917,2.0919,2.0923,2.096,2.0929,2.0928,2.0936,2.0932,2.0937,2.0937,2.0929,2.0959,2.0964,2.0986,2.0944,2.1037,2.104,2.1043,2.1078,2.1085,2.109,0,0,0,0,0,2.0896,2.0926,2.0918,2.0922,2.0941,2.0962,2.0964,2.0955,2.0938,2.0953,2.0952,2.0936,2.0981,2.0963,2.0967,2.0991,2.1036,2.1039,2.1043,2.1075,2.1083,2.109,0,0,0,0,0,0,2.0927,2.0926,2.0917,2.0949,2.0956,2.0957,2.0975,2.0963,2.0975,2.0972,2.096,2.0961,2.0993,2.0995,2.0974,2.1031,2.1006,2.1011,2.1029,2.1036,2.1042,2.1042,2.0945,0,0,0,0,0,2.0937,2.0953,2.0953,2.0981,2.0985,2.098,2.0988,2.0981,2.0987,2.099,2.0991,2.0999,2.1015,2.1026,2.104,2.1078,2.108,2.1097,2.1103,2.1108,2.1113,2.1135,2.1143,2.1057,2.1057,2.1057,0,0,2.0959,2.0961,2.0972,2.0987,2.0992,2.101,2.0982,2.1002,2.1016,2.0993,2.1021,2.1022,2.103,2.1065,2.108,2.1067,2.1137,2.1113,2.1117,2.1118,2.114,2.1148,2.1156,2.1059,2.1059,2.1058,0,0,2.1008,2.1011,2.1036,2.1041,2.1048,2.1045,2.1051,2.1055,2.1055,2.1082,2.1067,2.1084,2.1111,2.1118,2.1125,2.118,2.1168,2.1185,2.1218,2.124,2.1247,2.1253,2.1274,2.1282,2.119,2.119,2.119,0,2.1034,2.106,2.105,2.1072,2.108,2.1061,2.1087,2.1093,2.1105,2.1112,2.1097,2.1133,2.1137,2.1174,2.1188,2.1193,2.1202,2.1185,2.1247,2.1253,2.1258,2.1279,2.1286,2.1192,2.1192,2.1192,2.1191,0,2.1094,2.1112,2.1132,2.1144,2.1155,2.1178,2.1173,2.1185,2.1178,2.1176,2.1206,2.1211,2.1227,2.1235,2.1227,2.1272,2.1264,2.1248,2.1223,2.1269,2.1288,2.1296,2.1195,2.1195,2.1194,2.1193,0,0,2.1161,2.1169,2.1176,2.1183,2.1191,2.1205,2.123,2.1246,2.1257,2.1267,2.1288,2.1313,2.1299,2.1308,2.1301,2.132,2.1367,2.1303,2.1303,2.1316,2.1418,2.1431,2.144,2.1358,2.136,2.1361,2.1418,0,2.1211,2.1252,2.1244,2.1285,2.1303,2.1287,2.1308,2.1316,2.1316,2.1333,2.1333,2.1352,2.1332,2.1337,2.1356,2.1357,2.1387,2.1353,2.1379,2.138,2.1378,2.1449,2.1462,2.1516,2.1425,2.1427,2.1428,0,2.1274,2.1286,2.1329,2.1336,2.1344,2.1363,2.1378,2.1394,2.1404,2.1403,2.1414,2.1404,2.143,2.1404,2.1441,2.1418,2.1429,2.1432,2.1433,2.1436,2.1407,2.1455,2.1532,2.1541,2.1439,2.1438,2.1437,0,2.1321,2.1348,2.1378,2.1384,2.1392,2.1407,2.1411,2.142,2.1431,2.1445,2.1452,2.1469,2.1479,2.1493,2.1489,2.147,2.1528,2.1501,2.1529,2.1529,2.1541,2.1541,2.1623,2.1547,2.1547,2.1547,2.1547,0,2.1377,2.1404,2.1399,2.1417,2.1448,2.144,2.1471,2.1474,2.1482,2.1502,2.1489,2.1508,2.1501,2.152,2.1518,2.155,2.1554,2.1555,2.1554,2.1557,2.1557,2.1564,2.156,2.1549,2.1549,2.1548,2.1548,0,2.1434,2.1432,2.1463,2.147,2.1472,2.1495,2.1501,2.1519,2.1519,2.1544,2.155,2.155,2.1573,2.157,2.1595,2.1593,2.1634,2.1628,2.1631,2.163,2.1658,2.1656,2.1748,2.1761,2.1676,2.1677,2.1678,0,2.1471,2.1492,2.1501,2.1513,2.1519,2.1539,2.155,2.1544,2.1557,2.1572,2.1589,2.161,2.1626,2.1663,2.1666,2.1686,2.1681,2.1712,2.1684,2.1687,2.1683,2.1683,2.1686,2.1718,2.1719,2.1719,2.172,0,2.1537,2.1535,2.1552,2.157,2.1584,2.1597,2.161,2.1621,2.1616,2.1632,2.1655,2.1668,2.1694,2.1716,2.1735,2.1741,2.1731,2.1729,2.1737,2.174,2.1741,2.1743,2.1647,2.1727,2.1726,2.1726,2.1725,2.1725,2.1586,2.1604,2.1614,2.1634,2.1643,2.1656,2.1674,2.1677,2.1695,2.1716,2.1712,2.1738,2.175,2.1775,2.1783,2.1805,2.1794,2.1805,2.1808,2.1811,2.1815,2.1738,2.1808,2.1808,2.1808,2.1808,2.1808,0,2.1652,2.1658,2.1677,2.1695,2.1712,2.17,2.1714,2.1729,2.1752,2.1764,2.1781,2.1809,2.1831,2.1837,2.1858,2.1875,2.1871,2.1881,2.188,2.1882,2.1822,2.1814,2.1884,2.1884,2.1884,2.1884,2.1884,2.1884,2.1689,2.172,2.172,2.1757,2.1763,2.1789,2.1798,2.181,2.182,2.1851,2.1869,2.1873,2.1884,2.1906,2.1927,2.1928,2.1937,2.195,2.1949,2.1894,2.1886,2.1879,2.1871,2.1951,2.1951,2.2007,2.2008,2.2008]},{"header":{"parameterUnit":"m.s-1","parameterCategory":1,"la1":30.2991,"la2":30.254,"lo1":-89.0895,"lo2":-89.0444,"dy":0.0017,"dx":0.0017,"nx":28,"ny":28,"refTime":"2024-02-22T09:00:00:Z","depth":0,"parameterNumber":3,"parameterNumberName":"V-component_of_WINDS"},"data":[0,0,0,0,0,0,0,0,0,0,0,0,0,0,0,0,0,0,0,0,0,0,0,0,0,0,0,0,0,0,0,0,0,0,0,0,0,0,0,0,0,0,0,0,0,0,0,0,0,0,0,0,0,0,0,0,0,0,-4.87,-4.8701,0,-4.8794,-4.8795,-4.8796,-4.8785,-4.8783,-4.8782,-4.878,-4.8874,-4.8878,-4.8881,0,0,0,0,0,0,0,0,0,0,0,0,0,-4.8507,-4.8511,-4.87,-4.8701,-4.8702,-4.8794,-4.8795,-4.8797,-4.8785,-4.8783,-4.8781,-4.878,-4.8873,-4.8877,-4.8882,0,0,0,0,0,0,0,0,0,0,0,0,0,-4.8595,-4.8512,-4.8699,-4.8707,-4.8709,-4.8794,-4.8796,-4.8797,-4.8786,-4.8783,-4.8781,-4.8779,-4.8871,-4.8877,-4.8882,-4.8964,0,0,-4.89,-4.8903,0,0,0,0,0,0,0,0,-4.859,-4.8602,-4.8705,-4.8707,-4.8709,-4.8776,-4.8762,-4.8853,-4.8786,-4.8756,-4.878,-4.8778,-4.8843,-4.8851,-4.8873,-4.8969,-4.8973,-4.8901,-4.8904,-4.8907,-4.8909,0,0,0,0,0,0,0,-4.8584,-4.8598,-4.8737,-4.8706,-4.8709,-4.8706,-4.8716,-4.8779,-4.8811,-4.8759,-4.8758,-4.877,-4.8843,-4.8868,-4.8876,-4.8974,-4.8901,-4.8906,-4.891,-4.8912,-4.9143,-4.9146,0,0,0,0,0,0,-4.8576,-4.8593,-4.8734,-4.874,-4.8643,-4.8711,-4.8722,-4.8756,-4.881,-4.8816,-4.8772,-4.8769,-4.8859,-4.8869,-4.8879,-4.898,-4.8907,-4.8912,-4.8916,-4.9141,-4.9144,-4.9147,0,0,0,0,0,0,-4.8572,-4.8589,-4.873,-4.8666,-4.8684,-4.8717,-4.8755,-4.8759,-4.8784,-4.882,-4.8825,-4.8791,-4.8858,-4.8871,-4.8944,-4.8983,-4.8915,-4.892,-4.9138,-4.9142,-4.9145,-4.9181,0,0,0,0,0,0,-4.8567,-4.8588,-4.8619,-4.8667,-4.8688,-4.8794,-4.8758,-4.8763,-4.8795,-4.8792,-4.884,-4.8845,-4.8857,-4.8935,-4.895,-4.8989,-4.8925,-4.9134,-4.914,-4.9144,-4.9176,-4.9186,-4.9193,0,0,0,0,0,-4.856,-4.8624,-4.8621,-4.8638,-4.8728,-4.8796,-4.8808,-4.8821,-4.8798,-4.883,-4.8853,-4.8844,-4.8976,-4.8943,-4.8959,-4.9001,-4.9132,-4.9138,-4.9144,-4.9173,-4.9184,-4.9193,0,0,0,0,0,0,-4.8578,-4.863,-4.8627,-4.8709,-4.8749,-4.8794,-4.8835,-4.8832,-4.8878,-4.8873,-4.8886,-4.8897,-4.8972,-4.8994,-4.8956,-4.9084,-4.9051,-4.906,-4.9067,-4.9078,-4.9086,-4.9079,-4.893,0,0,0,0,0,-4.8592,-4.8644,-4.8686,-4.8754,-4.8775,-4.8802,-4.8832,-4.8839,-4.888,-4.8896,-4.8925,-4.8964,-4.9015,-4.9048,-4.9096,-4.918,-4.919,-4.9217,-4.9225,-4.9232,-4.924,-4.9288,-4.93,-4.9166,-4.9166,-4.9166,0,0,-4.862,-4.8655,-4.8687,-4.8759,-4.879,-4.8844,-4.8816,-4.8873,-4.8912,-4.8904,-4.8976,-4.8999,-4.9043,-4.9123,-4.9159,-4.9144,-4.928,-4.924,-4.9245,-4.9249,-4.9295,-4.9308,-4.9319,-4.917,-4.917,-4.9169,0,0,-4.8699,-4.8731,-4.8792,-4.8825,-4.8873,-4.8891,-4.8906,-4.8953,-4.8969,-4.9041,-4.9037,-4.9084,-4.917,-4.9203,-4.9231,-4.9326,-4.9319,-4.9341,-4.9386,-4.9432,-4.9442,-4.9452,-4.9487,-4.9499,-4.9349,-4.9349,-4.9349,0,-4.8727,-4.8809,-4.8823,-4.8882,-4.8914,-4.8912,-4.8974,-4.9004,-4.9066,-4.9088,-4.907,-4.9181,-4.921,-4.9298,-4.9322,-4.9344,-4.9362,-4.9336,-4.944,-4.945,-4.9459,-4.9492,-4.9505,-4.9352,-4.9351,-4.9351,-4.9351,0,-4.8842,-4.8899,-4.8942,-4.9004,-4.9041,-4.9101,-4.9125,-4.9161,-4.9165,-4.9185,-4.926,-4.9296,-4.9353,-4.9374,-4.9378,-4.9463,-4.9452,-4.9437,-4.9404,-4.9474,-4.9505,-4.9518,-4.9355,-4.9354,-4.9354,-4.9353,0,0,-4.8933,-4.9004,-4.902,-4.9049,-4.9104,-4.9148,-4.9208,-4.9266,-4.9297,-4.934,-4.9391,-4.9466,-4.9453,-4.9485,-4.9492,-4.9533,-4.9608,-4.9513,-4.9514,-4.953,-4.9706,-4.9717,-4.9731,-4.9604,-4.9606,-4.9608,-4.9702,0,-4.9018,-4.9126,-4.9142,-4.9238,-4.9291,-4.929,-4.9343,-4.9383,-4.9403,-4.9451,-4.9473,-4.9527,-4.9505,-4.9525,-4.9565,-4.959,-4.9643,-4.9583,-4.9651,-4.9654,-4.9641,-4.9748,-4.9759,-4.9846,-4.9714,-4.9716,-4.9718,0,-4.9131,-4.918,-4.9281,-4.9331,-4.9354,-4.9401,-4.9456,-4.9502,-4.9547,-4.9559,-4.9597,-4.96,-4.9663,-4.9628,-4.9715,-4.9674,-4.9703,-4.972,-4.9724,-4.973,-4.969,-4.9758,-4.9874,-4.9887,-4.9737,-4.9736,-4.9734,0,-4.9188,-4.9279,-4.9352,-4.9377,-4.9436,-4.947,-4.9496,-4.954,-4.9574,-4.9622,-4.9644,-4.9698,-4.9727,-4.9769,-4.9787,-4.976,-4.9874,-4.9839,-4.9886,-4.9885,-4.9909,-4.9907,-5.0032,-4.9928,-4.9927,-4.9927,-4.9927,0,-4.9281,-4.9343,-4.9379,-4.9423,-4.9494,-4.9512,-4.958,-4.9606,-4.9645,-4.9694,-4.9697,-4.9743,-4.9764,-4.9814,-4.9828,-4.9899,-4.9912,-4.9924,-4.9927,-4.9924,-4.9922,-4.9942,-4.9937,-4.9931,-4.993,-4.9929,-4.9929,0,-4.9356,-4.9382,-4.9462,-4.9514,-4.9528,-4.9578,-4.9621,-4.9665,-4.9687,-4.975,-4.9765,-4.9799,-4.9858,-4.9881,-4.9951,-4.9961,-5.0043,-5.0041,-5.0029,-5.003,-5.0075,-5.0071,-5.0217,-5.0237,-5.0119,-5.012,-5.0121,0,-4.9414,-4.9462,-4.952,-4.9554,-4.9582,-4.9637,-4.9673,-4.9693,-4.973,-4.9787,-4.9824,-4.9884,-4.9932,-5.0026,-5.0056,-5.0111,-5.0111,-5.0159,-5.0119,-5.0115,-5.0113,-5.011,-5.0115,-5.0166,-5.0167,-5.0168,-5.0169,0,-4.9514,-4.9525,-4.9577,-4.9635,-4.9678,-4.9724,-4.9768,-4.9796,-4.9823,-4.9865,-4.9927,-4.9964,-5.0039,-5.0098,-5.0155,-5.0182,-5.018,-5.0181,-5.0195,-5.0192,-5.0183,-5.019,-5.0049,-5.0177,-5.0177,-5.0176,-5.0175,-5.0175,-4.9582,-4.9626,-4.9674,-4.9733,-4.9769,-4.9811,-4.9856,-4.9884,-4.9936,-5.0,-5.0008,-5.0075,-5.012,-5.0198,-5.0227,-5.0279,-5.0266,-5.0285,-5.029,-5.0295,-5.0299,-5.0175,-5.0289,-5.0289,-5.0289,-5.0288,-5.0288,0,-4.9683,-4.9714,-4.9768,-4.9832,-4.9879,-4.9875,-4.9925,-4.9964,-5.0023,-5.0066,-5.0115,-5.0187,-5.0245,-5.0281,-5.0339,-5.0374,-5.0375,-5.0388,-5.0386,-5.0392,-5.0306,-5.0289,-5.0387,-5.0387,-5.0387,-5.0387,-5.0387,-5.0387,-4.974,-4.9815,-4.9832,-4.9925,-4.9956,-5.0023,-5.0052,-5.0091,-5.0126,-5.0207,-5.0256,-5.028,-5.0321,-5.0383,-5.0436,-5.0445,-5.0467,-5.0482,-5.049,-5.0408,-5.0398,-5.0388,-5.0372,-5.0486,-5.0486,-5.0571,-5.0572,-5.0573]}]]